• In Uzbekistan
  • List of Countries
  • For 7 days
  • Water Temperature
  • Weather Map
  • Weather Widgets
  • user-avatar
    Login

    Hourly Weather Fier

    Today, 22 November, Friday

    Time Temperature Precipitation Wind Pressure Humidity
    00:00 +14°C° 0 mm 1 mps 759 mmHg 73%
    01:00 +14°C° 0 mm 1 mps 759 mmHg 73%
    02:00 +13°C° 0 mm 1 mps 759 mmHg 74%
    03:00 +13°C° 0 mm 1 mps 759 mmHg 75%
    04:00 +13°C° 0 mm 1 mps 759 mmHg 76%
    05:00 +13°C° 0 mm 1 mps 759 mmHg 76%
    06:00 +13°C° 0 mm 1 mps 759 mmHg 77%
    07:00 +13°C° 0 mm 1 mps 759 mmHg 76%
    08:00 +14°C° 0 mm 1 mps 760 mmHg 72%
    09:00 +16°C° 0 mm 1 mps 760 mmHg 67%
    10:00 +18°C° 0 mm 1 mps 760 mmHg 63%
    11:00 +18°C° 0 mm 1 mps 760 mmHg 61%
    12:00 +19°C° 0 mm 1 mps 760 mmHg 59%
    13:00 +20°C° 0 mm 1 mps 760 mmHg 57%
    14:00 +19°C° 0.1 mm 1 mps 760 mmHg 62%
    15:00 +18°C° 0.1 mm 1 mps 760 mmHg 67%
    16:00 +16°C° 0.1 mm 1 mps 760 mmHg 72%
    17:00 +16°C° 0 mm 1 mps 760 mmHg 73%
    18:00 +15°C° 0 mm 2 mps 760 mmHg 75%
    19:00 +15°C° 0 mm 2 mps 761 mmHg 77%
    20:00 +14°C° 0 mm 2 mps 761 mmHg 77%
    21:00 +14°C° 0 mm 2 mps 761 mmHg 77%
    22:00 +13°C° 0 mm 3 mps 761 mmHg 77%
    23:00 +13°C° 0 mm 3 mps 761 mmHg 76%

    Tomorrow, 23 November, Saturday

    Time Temperature Precipitation Wind Pressure Humidity
    00:00 +12°C° 0 mm 3 mps 761 mmHg 75%
    01:00 +12°C° 0 mm 3 mps 761 mmHg 74%
    02:00 +12°C° 0 mm 3 mps 761 mmHg 74%
    03:00 +12°C° 0 mm 3 mps 761 mmHg 74%
    04:00 +12°C° 0 mm 3 mps 761 mmHg 74%
    05:00 +12°C° 0.1 mm 3 mps 761 mmHg 74%
    06:00 +12°C° 0.1 mm 3 mps 761 mmHg 74%
    07:00 +11°C° 0.1 mm 4 mps 761 mmHg 74%
    08:00 +13°C° 0 mm 4 mps 761 mmHg 69%
    09:00 +16°C° 0 mm 3 mps 761 mmHg 64%
    10:00 +18°C° 0 mm 3 mps 761 mmHg 59%
    11:00 +18°C° 0 mm 4 mps 760 mmHg 57%
    12:00 +19°C° 0 mm 4 mps 760 mmHg 55%
    13:00 +20°C° 0 mm 4 mps 760 mmHg 53%
    14:00 +19°C° 0.1 mm 3 mps 759 mmHg 57%
    15:00 +18°C° 0.1 mm 3 mps 759 mmHg 61%
    16:00 +18°C° 0.1 mm 3 mps 759 mmHg 66%
    17:00 +17°C° 0.1 mm 3 mps 759 mmHg 68%
    18:00 +15°C° 0.1 mm 4 mps 759 mmHg 70%
    19:00 +14°C° 0.1 mm 4 mps 760 mmHg 72%
    20:00 +14°C° 0 mm 4 mps 760 mmHg 72%
    21:00 +14°C° 0 mm 4 mps 760 mmHg 72%
    22:00 +13°C° 0 mm 4 mps 760 mmHg 73%
    23:00 +13°C° 0 mm 4 mps 760 mmHg 72%

    Day after tomorrow, 24 November, Sunday

    Time Temperature Precipitation Wind Pressure Humidity
    00:00 +13°C° 0 mm 4 mps 760 mmHg 72%
    01:00 +13°C° 0 mm 4 mps 760 mmHg 72%
    02:00 +13°C° 0 mm 4 mps 759 mmHg 71%
    03:00 +13°C° 0 mm 4 mps 759 mmHg 71%
    04:00 +12°C° 0 mm 4 mps 758 mmHg 71%
    05:00 +12°C° 0 mm 4 mps 758 mmHg 70%
    06:00 +12°C° 0 mm 4 mps 758 mmHg 70%
    07:00 +12°C° 0 mm 4 mps 758 mmHg 70%
    08:00 +14°C° 0 mm 4 mps 758 mmHg 67%
    09:00 +15°C° 0 mm 4 mps 758 mmHg 63%
    10:00 +17°C° 0 mm 4 mps 757 mmHg 60%
    11:00 +18°C° 0 mm 4 mps 757 mmHg 59%
    12:00 +19°C° 0 mm 4 mps 756 mmHg 58%
    13:00 +20°C° 0 mm 4 mps 755 mmHg 56%
    14:00 +19°C° 0 mm 4 mps 755 mmHg 59%
    15:00 +18°C° 0 mm 4 mps 754 mmHg 61%
    16:00 +16°C° 0 mm 5 mps 754 mmHg 63%
    17:00 +16°C° 0 mm 5 mps 754 mmHg 64%
    18:00 +16°C° 0 mm 5 mps 753 mmHg 65%
    19:00 +15°C° 0 mm 6 mps 753 mmHg 65%
    20:00 +15°C° 0 mm 6 mps 752 mmHg 66%
    21:00 +15°C° 0 mm 5 mps 752 mmHg 67%
    22:00 +15°C° 0 mm 5 mps 752 mmHg 68%
    23:00 +15°C° 0.1 mm 5 mps 751 mmHg 70%

    25 November, Monday

    Time Temperature Precipitation Wind Pressure Humidity
    00:00 +15°C° 0.1 mm 5 mps 751 mmHg 72%
    01:00 +14°C° 0.1 mm 4 mps 751 mmHg 74%
    02:00 +14°C° 0 mm 3 mps 751 mmHg 76%
    03:00 +14°C° 0 mm 3 mps 750 mmHg 77%
    04:00 +14°C° 0 mm 2 mps 750 mmHg 79%
    05:00 +14°C° 0 mm 2 mps 750 mmHg 78%
    06:00 +14°C° 0 mm 2 mps 750 mmHg 78%
    07:00 +14°C° 0 mm 2 mps 750 mmHg 77%
    08:00 +14°C° 0.4 mm 3 mps 750 mmHg 78%
    09:00 +14°C° 0.4 mm 3 mps 750 mmHg 79%
    10:00 +15°C° 0.4 mm 4 mps 750 mmHg 80%
    11:00 +14°C° 0.9 mm 3 mps 750 mmHg 81%
    12:00 +14°C° 0.9 mm 3 mps 751 mmHg 81%
    13:00 +14°C° 0.9 mm 3 mps 751 mmHg 82%
    14:00 +13°C° 0.7 mm 3 mps 751 mmHg 84%
    15:00 +13°C° 0.7 mm 3 mps 751 mmHg 85%
    16:00 +14°C° 0.7 mm 2 mps 751 mmHg 87%
    17:00 +14°C° 0.1 mm 2 mps 751 mmHg 85%
    18:00 +14°C° 0.1 mm 2 mps 752 mmHg 83%
    19:00 +14°C° 0.1 mm 2 mps 752 mmHg 82%
    20:00 +14°C° 0 mm 2 mps 752 mmHg 80%
    21:00 +14°C° 0 mm 2 mps 753 mmHg 79%
    22:00 +14°C° 0 mm 2 mps 753 mmHg 78%
    23:00 +14°C° 0 mm 2 mps 753 mmHg 78%

    26 November, Tuesday

    Time Temperature Precipitation Wind Pressure Humidity
    00:00 +14°C° 0 mm 2 mps 753 mmHg 78%
    01:00 +13°C° 0 mm 2 mps 753 mmHg 78%
    02:00 +13°C° 0 mm 2 mps 753 mmHg 77%
    03:00 +13°C° 0 mm 2 mps 753 mmHg 77%
    04:00 +13°C° 0 mm 2 mps 753 mmHg 77%
    05:00 +13°C° 0 mm 2 mps 753 mmHg 77%
    06:00 +13°C° 0 mm 1 mps 754 mmHg 77%
    07:00 +13°C° 0 mm 1 mps 754 mmHg 77%
    08:00 +14°C° 0 mm 1 mps 754 mmHg 73%
    09:00 +15°C° 0 mm 1 mps 754 mmHg 68%
    10:00 +18°C° 0 mm 1 mps 754 mmHg 64%
    11:00 +18°C° 0 mm 1 mps 754 mmHg 63%
    12:00 +18°C° 0 mm 2 mps 754 mmHg 62%
    13:00 +18°C° 0 mm 2 mps 754 mmHg 60%
    14:00 +18°C° 0 mm 2 mps 754 mmHg 65%
    15:00 +17°C° 0 mm 2 mps 754 mmHg 69%
    16:00 +16°C° 0 mm 2 mps 754 mmHg 74%
    17:00 +15°C° 0 mm 2 mps 755 mmHg 75%
    18:00 +15°C° 0 mm 1 mps 755 mmHg 77%
    19:00 +14°C° 0 mm 1 mps 756 mmHg 79%
    20:00 +14°C° 0 mm 1 mps 756 mmHg 79%
    21:00 +14°C° 0 mm 1 mps 756 mmHg 80%
    22:00 +14°C° 0 mm 1 mps 757 mmHg 80%
    23:00 +13°C° 0 mm 1 mps 757 mmHg 80%

    27 November, Wednesday

    Time Temperature Precipitation Wind Pressure Humidity
    00:00 +13°C° 0 mm 1 mps 757 mmHg 80%
    01:00 +13°C° 0 mm 1 mps 757 mmHg 80%
    02:00 +13°C° 0 mm 1 mps 757 mmHg 80%
    03:00 +13°C° 0 mm 1 mps 757 mmHg 80%
    04:00 +13°C° 0 mm 2 mps 757 mmHg 80%
    05:00 +13°C° 0 mm 2 mps 757 mmHg 80%
    06:00 +13°C° 0 mm 2 mps 757 mmHg 80%
    07:00 +12°C° 0 mm 2 mps 757 mmHg 80%
    08:00 +14°C° 0 mm 2 mps 758 mmHg 77%
    09:00 +16°C° 0 mm 2 mps 758 mmHg 73%
    10:00 +17°C° 0 mm 2 mps 758 mmHg 70%
    11:00 +18°C° 0 mm 2 mps 758 mmHg 69%
    12:00 +18°C° 0 mm 2 mps 757 mmHg 68%
    13:00 +18°C° 0 mm 2 mps 757 mmHg 68%
    14:00 +18°C° 0 mm 2 mps 757 mmHg 71%
    15:00 +17°C° 0 mm 2 mps 757 mmHg 75%
    16:00 +16°C° 0 mm 2 mps 757 mmHg 79%
    17:00 +16°C° 0 mm 2 mps 757 mmHg 80%
    18:00 +14°C° 0 mm 3 mps 758 mmHg 82%
    19:00 +14°C° 0 mm 3 mps 758 mmHg 83%
    20:00 +14°C° 0 mm 3 mps 758 mmHg 84%
    21:00 +14°C° 0 mm 3 mps 758 mmHg 84%
    22:00 +13°C° 0 mm 4 mps 758 mmHg 84%
    23:00 +13°C° 0 mm 4 mps 758 mmHg 84%
    Show more